Location: New Frontier Mobile Home Park
(32.8448°N, 116.9675°W)
Time: 22:17:57
(UTC+00:00)

Cosmos 1140 Rocket - Pass Details

Date: 14 July 2020
Orbit: 744 x 768 km, 74.1° (Epoch: 05 August)

Event Time Altitude Azimuth Distance (km) Brightness Sun altitude
Exits shadow 09:12:14 44° 36° (NE) 1,051 4.5 -32.4°
Drops below altitude 10° 09:15:49 10° 22° (NNE) 2,300 6.8 -32.2°
Sets 09:18:12 0° 20° (NNE) 3,233 7.9 -32.0°
